RADUGA 1 1 08513U 75123A 25174.57726921 -.00000140 00000-0 00000-0 0 9999 2 08513 3.7290 272.4773 0005484 262.7529 25.5427 1.00292815191213 RADUGA 2 1 09416U 76092A 25174.37449919 -.00000147 00000-0 00000-0 0 9992 2 09416 4.4028 275.0651 0027694 29.1814 185.1459 1.00252166125744 RADUGA 3 1 10159U 77071A 25174.44139411 .00000074 00000-0 00000-0 0 9995 2 10159 5.0372 278.4255 0008539 281.1401 290.9781 1.00194586173449 RADUGA 4 1 10987U 78073A 25174.80098903 -.00000078 00000-0 00000+0 0 9991 2 10987 5.6973 282.9217 0009745 26.9442 323.8670 1.00351134115992 RADUGA 5 1 11343U 79035A 25174.59566891 .00000011 00000-0 00000-0 0 9996 2 11343 6.1909 286.3639 0004904 210.5101 55.4568 1.00259273125755 RADUGA 6 1 11708U 80016A 25174.76772818 -.00000324 00000-0 00000+0 0 9996 2 11708 6.5975 290.1705 0001729 279.1104 84.1420 1.00299073118558 RADUGA 7 1 12003U 80081A 25173.54415964 .00000126 00000-0 00000-0 0 9998 2 12003 6.8191 292.5610 0010170 300.8138 88.5427 1.00356385119703 RADUGA 8 1 12351U 81027A 25174.59780289 -.00000262 00000-0 00000-0 0 9998 2 12351 7.1571 292.9099 0080132 262.4143 71.2397 1.00359225118940 RADUGA 9 1 12618U 81069A 25173.87781572 -.00000292 00000-0 00000-0 0 9999 2 12618 7.4379 296.6667 0002636 180.4963 208.0188 1.00338591 43745 RADUGA 10 1 12897U 81102A 25174.57868444 -.00000068 00000-0 00000-0 0 9999 2 12897 7.5429 297.8635 0003975 225.6491 30.9437 1.00247726113740 RADUGA 11 1 13669U 82113A 25174.10756892 -.00000107 00000-0 00000-0 0 9996 2 13669 9.9145 313.6339 0040731 284.1863 19.6340 0.97709366118022 RADUGA 12 1 13974U 83028A 25174.57810781 -.00000179 00000-0 00000+0 0 9998 2 13974 8.9380 308.8498 0000714 92.5211 163.1858 1.00279656165770 RADUGA 13 1 14307U 83088A 25174.20957170 -.00000176 00000-0 00000-0 0 9997 2 14307 10.2203 315.0316 0016307 63.1838 300.1143 0.98175632115426 RADUGA 14 1 14725U 84016A 25174.44295796 -.00000017 00000-0 00000-0 0 9992 2 14725 9.2652 313.1694 0003513 163.7176 22.1916 1.00251196114502 RADUGA 15 1 15057U 84063A 25174.50677531 -.00000357 00000-0 00000-0 0 9998 2 15057 9.4189 314.1677 0003998 196.4831 65.8241 1.00317718137501 RADUGA 16 1 15946U 85070A 25174.47897485 -.00000046 00000-0 00000-0 0 9997 2 15946 10.0397 319.1251 0001491 245.6324 129.2482 1.00163949118630 RADUGA 17 1 16250U 85107A 25174.54330919 .00000119 00000-0 00000+0 0 9998 2 16250 10.2148 320.6494 0014140 217.7628 142.7407 1.00148587148218 RADUGA 18 1 16497U 86007A 25174.61031221 -.00000120 00000-0 00000+0 0 9996 2 16497 11.0991 323.4831 0072488 191.9962 168.0287 0.98814728142376 RADUGA 19 1 17046U 86082A 25174.41329613 -.00000054 00000-0 00000-0 0 9990 2 17046 11.6835 327.6373 0012306 181.1459 190.1060 0.98459516139384 RADUGA 20 1 17611U 87028A 25174.14521412 -.00000145 00000-0 00000-0 0 9991 2 17611 13.7964 330.8373 0028748 164.4029 195.3253 0.95961887134863 RADUGA 21 1 18631U 87100A 25174.61291862 .00000111 00000-0 00000+0 0 9991 2 18631 11.8187 327.8079 0001482 194.3230 175.5193 1.00253243137484 RADUGA 22 1 19596U 88095A 25174.58092824 -.00000330 00000-0 00000-0 0 9994 2 19596 11.9963 332.5318 0006706 180.7852 102.1060 1.00289948118052 RADUGA 23 1 19928U 89030A 25174.51481381 -.00000083 00000-0 00000-0 0 9991 2 19928 12.2227 334.3887 0021020 195.3902 357.5909 1.00364814131254 RADUGA 1-1 1 20083U 89048A 25174.14677797 -.00000143 00000-0 00000-0 0 9998 2 20083 13.0984 337.6077 0020161 144.3930 216.9392 0.98710443127735 RADUGA 24 1 20367U 89098A 25174.58139402 .00000101 00000-0 00000-0 0 9995 2 20367 12.8916 336.3483 0002355 249.8315 301.1912 1.00294352129379 RADUGA 25 1 20499U 90016A 25174.40887811 -.00000250 00000-0 00000-0 0 9994 2 20499 12.6970 337.1795 0005124 191.7888 217.2002 1.00290423129311 RADUGA 26 1 21016U 90112A 25174.44869206 -.00000304 00000-0 00000-0 0 9999 2 21016 13.1577 340.4274 0004801 124.3314 65.5043 1.00276963126669 RADUGA 1-2 1 21038U 90116A 25174.59105139 -.00000157 00000-0 00000-0 0 9997 2 21038 13.2000 340.4696 0005949 138.1513 84.4334 1.00330307 43744 RADUGA 27 1 21132U 91014A 25174.13100168 .00000081 00000-0 00000-0 0 9992 2 21132 13.6756 339.5727 0001393 155.9723 200.6963 1.00275060125705 RADUGA 28 1 21821U 91087A 25174.60239587 .00000004 00000-0 00000+0 0 9991 2 21821 13.6291 343.6536 0006299 166.6876 42.2530 1.00185942122757 RADUGA 29 1 22557U 93013A 25174.21773847 .00000054 00000-0 00000-0 0 9994 2 22557 14.0363 347.7805 0005526 168.7138 206.1061 1.00293225118084 RADUGA 30 1 22836U 93062A 25174.51490069 -.00000075 00000-0 00000-0 0 9997 2 22836 14.1788 349.8030 0003362 308.1132 229.7671 1.00281410 42402 RADUGA 1-3 1 22981U 94008A 25174.58373979 .00000037 00000-0 00000-0 0 9993 2 22981 14.3125 350.9017 0002404 163.7951 25.3471 1.00229682114881 RADUGA 31 1 23010U 94012A 25174.57825281 -.00000337 00000-0 00000-0 0 9993 2 23010 14.2814 350.9107 0003186 148.7752 81.5004 1.00306948114752 RADUGA 32 1 23448U 94087A 25174.51498757 -.00000079 00000-0 00000-0 0 9991 2 23448 14.4029 353.6674 0007117 243.6818 290.7621 1.00278959129285 RADUGA 1-4 1 25642U 99010A 25174.60044524 -.00000087 00000-0 00000-0 0 9998 2 25642 15.5440 4.6158 0004495 252.4201 300.7197 1.00355097 96352 RADUGA 1-5 1 26477U 00049A 25174.89363719 -.00000152 00000-0 00000+0 0 9992 2 26477 13.7633 10.6992 0002618 94.5660 205.8953 1.00340814 90894 RADUGA 1-6 1 26936U 01045A 25174.38966014 -.00000203 00000-0 00000-0 0 9998 2 26936 14.2648 17.2636 0018247 197.3333 357.2399 0.97746430 85099 RADUGA 1-7 1 28194U 04010A 25174.50720615 -.00000363 00000-0 00000-0 0 9997 2 28194 13.2599 23.5839 0003808 212.8054 346.8230 1.00254333 77827 RADUGA 1M-1 1 32373U 07058A 25174.47405987 -.00000269 00000-0 00000+0 0 9998 2 32373 9.3728 55.1663 0001847 38.5359 308.8493 0.99399180 64753 RADUGA 1-8 1 34264U 09010A 25174.52600041 -.00000359 00000-0 00000+0 0 9993 2 34264 11.4101 45.0167 0011202 23.5121 159.2399 0.99826606 59583 RADUGA 1M-2 1 36358U 10002A 25174.53922580 -.00000082 00000-0 00000+0 0 9991 2 36358 2.6841 83.4285 0004867 256.1607 319.7670 0.98968186 56391 RADUGA 1M-3 1 39375U 13062A 25174.86962171 .00000152 00000-0 00000+0 0 9995 2 39375 5.0460 76.7774 0002413 259.4977 284.0473 1.00271614 42539